sat.trackr.live / text

‹ back to catalog

STARLINK-5868

NORAD 56483 · 2023-064AM

PAYLOAD ACTIVE UNKNOWN

§ Identity

Operator
Country
US
Launch date
2023-05-10
Launch site
AFWTR
Launch vehicle
Mass (kg)
RCS (m²)

Purposes: comms

External: N2YO · Heavens-Above · Gunter

§ Orbital elements

Epoch: 2026-05-25T03:36:05.807808Z

Period
96.11 min
Inclination
69.9984°
Eccentricity
0.0002828
Mean motion
14.98321341 rev/d
Perigee alt
570.1 km
Apogee alt
574.0 km
Semi-major
6,950.2 km
B*
5.5695e-6
RAAN
291.6112°
Arg perigee
268.1708°
Mean anomaly
91.9127°
Rev number
16,719

§ Raw data

STARLINK-58681 56483U 23064AM  26145.15006722 -.00000027  00000+0  55695-5 0  99962 56483  69.9984 291.6112 0002828 268.1708  91.9127 14.98321341167196

JSON: /api/v1/satellites/56483 · /tle

For live sub-satellite position, see the globe view (requires WebGL).

§ Visibility from observer

Set your observer location to see the next 7 days of passes ≥ 10°. The values pass through the URL so the page stays shareable.

No JS? Fill the form by hand. The geolocation button needs JavaScript.